Regional Weather Roundup
Issued by NWS

Home | Current Version | Previous Version | Graphics & Text | Print | Product List | Glossary On
Versions: 1 2 3 4 5 6 7 8 9 10 11 12 13 14 15 16 17 18 19 20 21 22 23 24 25 26 27 28 29 30 31 32 33 34 35 36 37 38 39 40 41 42 43 44 45 46 47 48 49 50
000
ASUS43 KMKX 281035
RWRWI

WISCONSIN REGIONAL WEATHER ROUNDUP
NATIONAL WEATHER SERVICE MILWAUKEE/SULLIVAN WI
600 AM CDT THU MAY 28 2015

NOTE: "FAIR" INDICATES FEW OR NO CLOUDS BELOW 12,000 FEET WITH NO
SIGNIFICANT WEATHER AND/OR OBSTRUCTIONS TO VISIBILITY.

WIZ001-002-006>008-014>016-023>028-281200-
NORTHWEST WISCONSIN

CITY           SKY/WX    TMP DP  RH WIND       PRES   REMARKS
SUPERIOR ARPT  CLEAR     44  40  87 E14G23    30.12R
ASHLAND        CLEAR     44  43  96 NE5       30.10S
HAYWARD        CLEAR     49  48  97 N6        30.08R FOG
SIREN          PTCLDY    50  49  94 CALM      30.06R
CUMBERLAND     CLEAR     54  52  94 CALM      30.08R
RICE LAKE      CLEAR     54  51  90 CALM      30.09R
CHETEK         CLEAR     55  54  96 CALM      30.08R
LADYSMITH      CLEAR     52  51  97 CALM      30.11R FOG
EAU CLAIRE     CLEAR     54  52  93 CALM      30.07R
MENOMONIE      CLEAR     58  57  98 E3        30.08R FOG
NEW RICHMOND   CLEAR     59  56  90 SE5       30.05S
OSCEOLA        CLEAR     55  55 100 E3        30.06S
$$

WIZ003>005-009-010-017-018-281200-
NORTH CENTRAL WISCONSIN

CITY           SKY/WX    TMP DP  RH WIND       PRES   REMARKS
MANITOWISH WTR PTCLDY    47  47 100 CALM      30.11R FOG
ARBOR VITAE    CLEAR     49  48  96 CALM      30.11R
WOODRUFF       CLEAR     49  48  96 CALM      30.11R
RHINELANDER    MOCLDY    46  45  96 CALM      30.12R FOG
EAGLE RIVER    FOG       46  46 100 CALM      30.12R VSB 1
LAND O LAKES   CLOUDY    44  44 100 CALM      30.13R FOG
PHILLIPS       CLEAR     49  49 100 CALM      30.10R
TOMAHAWK       CLEAR     46  46  97 CALM      30.12R FOG
MEDFORD        CLEAR     52  52  97 CALM      30.11R
MERRILL        CLEAR     47  47 100 CALM      30.12S FOG
$$

WIZ029-030-035-036-043>047-281200-
CENTRAL WISCONSIN

CITY           SKY/WX    TMP DP  RH WIND       PRES   REMARKS
WAUSAU         CLEAR     54  53  97 E5        30.10R
MOSINEE        CLEAR     52  52 100 CALM      30.13R FOG
MARSHFIELD     CLEAR     56  53  90 CALM      30.11R FOG
STEVENS POINT  CLEAR     50  50 100 CALM      30.13R FOG
WAUPACA        FOG       56  55  97 CALM      30.13R VSB 1/2
WAUTOMA        CLEAR     54  54 100 CALM      30.13R
WISC RAPIDS    CLEAR     54  52  93 CALM      30.12S
CAMP DOUGLAS   CLEAR     58  58 100 SE2       30.11R
$$

WIZ011>013-019>022-031-037>040-048>050-281200-
NORTHEAST WISCONSIN

CITY           SKY/WX    TMP DP  RH WIND       PRES   REMARKS
ANTIGO         CLEAR     49  49 100 CALM      30.13R FOG
SHAWANO        FOG       53  52  95 CALM      30.12R VSB<1/4
OCONTO           N/A     50  50 100 CALM      30.12R VSB 3/4
STURGEON BAY   CLEAR     54  50  87 CALM      30.15R
GREEN BAY      CLEAR     56  54  93 SE5       30.12R FOG
MANITOWOC      CLEAR     51  50  96 CALM      30.13S
APPLETON       CLEAR     55  55 100 S3        30.13R
CLINTONVILLE   FOG       54  54 100 CALM      30.12R VSB 1/2
OSHKOSH        CLEAR     58  54  86 S8        30.12R
$$

WIZ032>034-041-042-053>061-281200-
SOUTHWEST WISCONSIN

CITY           SKY/WX    TMP DP  RH WIND       PRES   REMARKS
LA CROSSE      CLEAR     62  58  86 SE5       30.10R
SPARTA         CLEAR     51  50  96 CALM      30.12R
VIROQUA        CLEAR     61  56  84 S3        30.14R
BOSCOBEL       FOG       55  54  96 CALM      30.14R VSB 1/4
PRAIRIE DU CHI CLEAR     58  55  91 CALM      30.14R
PLATTEVILLE    CLEAR     61  57  87 S7        30.16R
$$

WIZ056-057-062-063-064-067-068-281200-
SOUTH CENTRAL WISCONSIN

CITY           SKY/WX    TMP DP  RH WIND       PRES   REMARKS
REEDSBURG      CLEAR     60  57  89 CALM      30.13R
BARABOO/DELLS  CLEAR     63  55  75 CALM      30.14R
LONE ROCK      CLEAR     58  55  90 E3        30.15R
MINERAL POINT  CLEAR     63  55  77 S5        30.16R
MADISON        CLEAR     58  55  90 CALM      30.14R
MIDDLETON      CLEAR     66  56  68 SW8       30.15R
WATERTOWN      CLEAR    N/A N/A N/A CALM      30.15R
MONROE         CLEAR     59  55  88 SW9       30.16R
JANESVILLE     CLEAR     57  55  94 CALM      30.15R
$$

WIZ051-052-058>065-066-070>072-281200-
SOUTHEAST WISCONSIN

CITY           SKY/WX    TMP DP  RH WIND       PRES   REMARKS
MILWAUKEE      PTCLDY    59  54  83 CALM      30.15R
WAUKESHA       CLOUDY    57  54  88 CALM      30.17R
MILWAUKEE/TIMM MOCLDY    59  54  82 W5        30.16R
RACINE         CLEAR     61  54  77 SW3       30.17R
BURLINGTON     CLEAR     53  52  98 CALM      30.16S
KENOSHA        CLEAR     56  53  90 SW3       30.16R
FOND DU LAC    CLEAR     59  55  87 S3        30.14R
SHEBOYGAN      CLEAR     56  54  93 SW5       30.13R
WEST BEND      PTCLDY    61  55  82 SW3       30.15R
JUNEAU         CLEAR     58  56  93 SE6       30.17R
$$

LSZ147-162-281200-
LAKE SUPERIOR

STATION/POSITION TIME  TEMP    WIND        PRES    WAVE
                       AIR SEA DIR/SP/G            HT/PER
                 (UTC) (F)     (DEG/KT/KT) (MB)    (FT/S)
W MID LAKE BUOY  0950   39 37   50/ 14/ 16   N/A     3/ 4
DEVILS ISLAND    1000   41      60/ 15/ 18   N/A
PORT WING        0900   44      50/ 15/ 17   N/A
SAXON HARBOR     0900   48        CALM       N/A
$$

LMZ867-665-643>646-281200-
LAKE MICHIGAN

STATION/POSITION TIME  TEMP    WIND        PRES    WAVE
                       AIR SEA DIR/SP/G            HT/PER
                 (UTC) (F)     (DEG/KT/KT) (MB)    (FT/S)
CHAMBERS ISLAND  0900   58     200/  4/  8   N/A
N MID LAKE BUOY  0950   41 36  220/  8/  8   N/A     1/ 4
NORTHPORT PIER   0900   51     220/  2/  4   N/A
SISTER BAY       0918   51     150/  8/  9   N/A
ALGOMA LAKESHORE 0908          240/  2/  4   N/A
KEWAUNEE LAKESHO 0900   49      CALM  /  3   N/A
SHEBOYGAN LAKESH 1000   62     230/  3/  4   N/A
ATWATER BUOY     0900   58 47  250/  6/  8   N/A
MILWAUKEE LAKESH 0900   66     290/  9/ 11   N/A
S MID LAKE BUOY  0950   44 38  200/  8/  8   N/A     0
KENOSHA   LAKESH 0900   62     220/  5/  8   N/A
$$

TC  - TEMPERATURE IN CELSIUS
VSB - VISIBILITY IN STATUTE MILES
WCI - WIND CHILL INDEX
HX  - HEAT INDEX




USA.gov is the U.S. government's official web portal to all federal, state and local government web resources and services.